Accueil
METAR-TAF:

METAR-TAF

Aéroports :

Durant, Oklahoma, États-Unis

latitude: 33-56-32N, longitude: 096-23-40W, altitude: 213 m

Observation

Le bulletin a été fait il y a 13 minutes, à 12:35 UTC
Vent 3 kt de sud/sud-est
Température 20°C
Humidité 94%
Pression 1014 hPa
Visibilité: 6.4 km
Nuages épars à une hauteur de 5000 ft
Nuages épars à une hauteur de 7000 ft
brume

METAR: KDUA 251235Z AUTO 16003KT 4SM BR SCT050 SCT070 20/19 A2995 RMK AO2

Heure: 07:48 (12:48 UTC)


TAF: absent

Observations et prévisions météorologiques de plus de 4000 aéroports (messages METAR et TAF).

Les stations disponibles sont représentées par des disques jaunes et rouges sur la carte.

Passer la souris dessus pour voir le nom de la station.

Cliquer dessus pour voir les observations et prévisions météorologiques.

Pour changer de carte: cliquez sur les boutons verts avec une croix noire pour zoomer, sur le bouton vert avec un tiret pour effectuer un zoom arrière, ou sur les flèches vertes pour les cartes adjacentes.


METAR-TAF: